STARLINK-1344 (45559 NORAD) Tracking and Keplerian Element Data

This shows tracking and keplerian element data for the satellite.

Feedback or suggestion? Click here.




ElementValue
Catalog45559
NameSTARLINK-1344
Epoch Orbit627
Epoch Day149.25001157
Epoch Year2020
RAAN224.562
Inclination52.9976
Eccentricity9.44E-05
Argument of Perigee97.4744
Mean Anonmoly201.5031
Mean Motion15.62729147
Decay Rate4.658E-05
L11 45559U 20025AE 20149.25001157 .00004658 00000-0 56726-4 0 9997
L22 45559 52.9976 224.5620 0000944 97.4744 201.5031 15.62729147 6272

Live tracking and technical data element details for STARLINK-1344 (NORAD 45559). STARLINK-1344 can be tracked NOW for your location showing map with azimuth and elevation plus other details from your city location.

Track the satellite on the map from your city or location and see movement details for azimuth, elevation, latitude, longitude, range, height, and movement on the map or in text.







IsCatalogInMostPopularTable: catalog: 45559, numindb: 7
Update: records affected: 1



GetName: 45559 STARLINK-1344

Hit Count: updated at: Sat, 30 May 2020 14:44:02 GMT